| time (UTC) | temp F | wind direction | speed MPH | gust MPH | rain 1hr in | rain 24hr in | rain mn in | humidity % | barometer mb |
| 20260906024528 | 87 | 130 | 0.0 | 3.0 | 0.00 | 0.00 | 0.00 | 65 | 1009.2 |
| 20260906023028 | 87 | 153 | 0.0 | 2.0 | 0.00 | 0.00 | 0.00 | 63 | 1009.1 |
| 20260906021528 | 88 | 153 | 0.0 | 1.0 | 0.00 | 0.00 | 0.00 | 61 | 1008.7 |
| 20260906020033 | 88 | 155 | 0.0 | 0.0 | 0.00 | 0.00 | 0.00 | 60 | 1008.5 |
| 20260906014530 | 88 | 155 | 0.0 | 5.0 | 0.00 | 0.00 | 0.00 | 59 | 1008.5 |
| 20260906013026 | 88 | 141 | 0.0 | 4.0 | 0.00 | 0.00 | 0.00 | 59 | 1008.1 |
| 20260906011526 | 89 | 128 | 0.0 | 8.0 | 0.00 | 0.00 | 0.00 | 58 | 1007.8 |
| 20260906010024 | 91 | 139 | 0.0 | 7.0 | 0.00 | 0.00 | 0.00 | 55 | 1007.9 |
| 20260906004525 | 93 | 167 | 0.0 | 7.0 | 0.00 | 0.00 | 0.00 | 50 | 1007.8 |
| 20260906003027 | 94 | 137 | 0.0 | 7.0 | 0.00 | 0.00 | 0.00 | 49 | 1007.5 |
| 20260906001526 | 96 | 168 | 4.0 | 10.0 | 0.00 | 0.00 | 0.00 | 46 | 1007.4 |
| 20260906000025 | 97 | 141 | 0.0 | 4.0 | 0.00 | 0.00 | 0.00 | 43 | 1007.3 |
| 20260905234523 | 98 | 97 | 0.0 | 2.0 | 0.00 | 0.00 | 0.00 | 42 | 1007.0 |
| 20260905233030 | 98 | 62 | 0.0 | 6.0 | 0.00 | 0.00 | 0.00 | 41 | 1007.1 |
| 20260905231521 | 100 | 152 | 0.0 | 1.0 | 0.00 | 0.00 | 0.00 | 40 | 1007.1 |
| 20260905230020 | 99 | 128 | 0.0 | 7.0 | 0.00 | 0.00 | 0.00 | 40 | 1007.1 |
| 20260905224520 | 100 | 153 | 0.0 | 7.0 | 0.00 | 0.00 | 0.00 | 40 | 1007.0 |
| 20260905223032 | 100 | 156 | 0.0 | 2.0 | 0.00 | 0.00 | 0.00 | 39 | 1007.0 |
| 20260905221535 | 100 | 80 | 0.0 | 7.0 | 0.00 | 0.00 | 0.00 | 39 | 1007.0 |
| 20260905220015 | 101 | 259 | 2.0 | 6.0 | 0.00 | 0.00 | 0.00 | 38 | 1007.1 |
| 20260905214518 | 99 | 158 | 0.0 | 1.0 | 0.00 | 0.00 | 0.00 | 40 | 1007.3 |
| 20260905213015 | 98 | 153 | 0.0 | 2.0 | 0.00 | 0.00 | 0.00 | 40 | 1007.5 |
| 20260905211533 | 100 | 154 | 1.0 | 7.0 | 0.00 | 0.00 | 0.00 | 38 | 1007.6 |
| 20260905210009 | 101 | 55 | 0.0 | 1.0 | 0.00 | 0.00 | 0.00 | 38 | 1007.7 |
| 20260905204511 | 100 | 56 | 0.0 | 2.0 | 0.00 | 0.00 | 0.00 | 40 | 1008.0 |
| 20260905203008 | 100 | 240 | 0.0 | 3.0 | 0.00 | 0.00 | 0.00 | 40 | 1008.2 |
| 20260905201504 | 100 | 156 | 0.0 | 5.0 | 0.00 | 0.00 | 0.00 | 40 | 1008.4 |
| 20260905200138 | 100 | 278 | 0.0 | 3.0 | 0.00 | 0.00 | 0.00 | 40 | 1008.5 |
| 20260905200001 | 100 | 278 | 0.0 | 3.0 | 0.00 | 0.00 | 0.00 | 40 | 1008.5 |
| 20260905194601 | 99 | 288 | 0.0 | 4.0 | 0.00 | 0.00 | 0.00 | 41 | 1008.8 |
| 20260905193055 | 98 | 146 | 0.0 | 5.0 | 0.00 | 0.00 | 0.00 | 42 | 1009.1 |
| 20260905191552 | 98 | 111 | 0.0 | 2.0 | 0.00 | 0.00 | 0.00 | 42 | 1009.3 |
| 20260905190049 | 98 | 266 | 0.0 | 6.0 | 0.00 | 0.00 | 0.00 | 43 | 1009.7 |
| 20260905184549 | 98 | 255 | 1.0 | 7.0 | 0.00 | 0.00 | 0.00 | 43 | 1009.9 |
| 20260905183047 | 97 | 162 | 0.0 | 5.0 | 0.00 | 0.00 | 0.00 | 45 | 1010.0 |
| 20260905181543 | 96 | 153 | 0.0 | 6.0 | 0.00 | 0.00 | 0.00 | 45 | 1010.3 |
| 20260905180040 | 96 | 118 | 0.0 | 7.0 | 0.00 | 0.00 | 0.00 | 45 | 1010.6 |
| 20260905174537 | 96 | 178 | 0.0 | 4.0 | 0.00 | 0.00 | 0.00 | 48 | 1010.7 |
| 20260905173037 | 95 | 257 | 0.0 | 5.0 | 0.00 | 0.00 | 0.00 | 48 | 1010.9 |
| 20260905171542 | 95 | 243 | 0.0 | 4.0 | 0.00 | 0.00 | 0.00 | 49 | 1011.1 |
| 20260905170031 | 94 | 146 | 1.0 | 5.0 | 0.00 | 0.00 | 0.00 | 50 | 1011.3 |
| 20260905164523 | 93 | 113 | 0.0 | 3.0 | 0.00 | 0.00 | 0.00 | 48 | 1011.4 |
| 20260905163022 | 92 | 77 | 0.0 | 2.0 | 0.00 | 0.00 | 0.00 | 55 | 1011.4 |
| 20260905161523 | 92 | 173 | 0.0 | 5.0 | 0.00 | 0.00 | 0.00 | 55 | 1011.5 |
| 20260905160027 | 91 | 240 | 2.0 | 5.0 | 0.00 | 0.00 | 0.00 | 56 | 1011.4 |
| 20260905154521 | 90 | 248 | 0.0 | 4.0 | 0.00 | 0.00 | 0.00 | 60 | 1011.4 |
| 20260905153012 | 90 | 306 | 0.0 | 1.0 | 0.00 | 0.00 | 0.00 | 62 | 1011.3 |
| 20260905151512 | 89 | 223 | 0.0 | 1.0 | 0.00 | 0.00 | 0.00 | 63 | 1011.4 |
| 20260905150005 | 89 | 248 | 0.0 | 5.0 | 0.00 | 0.00 | 0.00 | 64 | 1011.2 |
| 20260905144501 | 87 | 266 | 0.0 | 3.0 | 0.00 | 0.00 | 0.00 | 66 | 1011.1 |
| 20260905143059 | 86 | 265 | 0.0 | 4.0 | 0.00 | 0.00 | 0.00 | 69 | 1011.2 |
| 20260905141558 | 85 | 267 | 0.0 | 5.0 | 0.00 | 0.00 | 0.00 | 71 | 1011.2 |
| 20260905140058 | 83 | 209 | 0.0 | 0.0 | 0.00 | 0.00 | 0.00 | 74 | 1011.1 |
| 20260905134558 | 82 | 198 | 0.0 | 0.0 | 0.00 | 0.00 | 0.00 | 76 | 1011.2 |
| 20260905133054 | 81 | 198 | 0.0 | 0.0 | 0.00 | 0.00 | 0.00 | 78 | 1011.0 |
| 20260905131556 | 80 | 198 | 0.0 | 0.0 | 0.00 | 0.00 | 0.00 | 78 | 1010.9 |
| 20260905130052 | 80 | 198 | 0.0 | 0.0 | 0.00 | 0.00 | 0.00 | 79 | 1010.7 |
| 20260905124551 | 80 | 198 | 0.0 | 0.0 | 0.00 | 0.00 | 0.00 | 79 | 1010.5 |
| 20260905123045 | 0 | 0.0 | 0.0 | 0.00 | 0.00 | 0.00 | 1010.3 | ||
| 20260905121542 | 0 | 0.0 | 0.0 | 0.00 | 0.00 | 0.00 | 1010.4 | ||
| 20260905120037 | 0 | 0.0 | 0.0 | 0.00 | 0.00 | 0.00 | 1010.4 | ||
| 20260905114533 | 0 | 0.0 | 0.0 | 0.00 | 0.00 | 0.00 | 1010.3 | ||
| 20260905113029 | 80 | 198 | 0.0 | 0.0 | 0.00 | 0.00 | 0.00 | 77 | 1010.4 |
| 20260905111530 | 80 | 198 | 0.0 | 0.0 | 0.00 | 0.00 | 0.00 | 77 | 1010.4 |
| 20260905110028 | 81 | 198 | 0.0 | 0.0 | 0.00 | 0.00 | 0.00 | 76 | 1010.2 |
| 20260905104535 | 81 | 196 | 0.0 | 0.0 | 0.00 | 0.00 | 0.00 | 75 | 1010.2 |
| 20260905103032 | 81 | 196 | 0.0 | 0.0 | 0.00 | 0.00 | 0.00 | 74 | 1010.3 |
| 20260905101523 | 81 | 196 | 0.0 | 0.0 | 0.00 | 0.00 | 0.00 | 73 | 1010.3 |
| 20260905100021 | 81 | 196 | 0.0 | 0.0 | 0.00 | 0.00 | 0.00 | 72 | 1010.1 |
| 20260905094520 | 81 | 196 | 0.0 | 0.0 | 0.00 | 0.00 | 0.00 | 71 | 1010.0 |
| 20260905093020 | 81 | 188 | 0.0 | 0.0 | 0.00 | 0.00 | 0.00 | 70 | 1010.0 |
| 20260905091619 | 81 | 188 | 0.0 | 0.0 | 0.00 | 0.00 | 0.00 | 71 | 1010.0 |
| 20260905090021 | 82 | 188 | 0.0 | 0.0 | 0.00 | 0.00 | 0.00 | 72 | 1009.9 |
| 20260905084522 | 82 | 173 | 0.0 | 0.0 | 0.00 | 0.00 | 0.00 | 72 | 1009.7 |
| 20260905083016 | 82 | 173 | 0.0 | 0.0 | 0.00 | 0.00 | 0.00 | 71 | 1009.6 |
| 20260905081514 | 83 | 173 | 0.0 | 0.0 | 0.00 | 0.00 | 0.00 | 71 | 1009.5 |
| 20260905080022 | 83 | 173 | 0.0 | 0.0 | 0.00 | 0.00 | 0.00 | 70 | 1009.5 |
| 20260905074509 | 84 | 173 | 0.0 | 0.0 | 0.00 | 0.00 | 0.00 | 69 | 1009.6 |
| 20260905073019 | 84 | 173 | 0.0 | 1.0 | 0.00 | 0.00 | 0.00 | 67 | 1009.7 |
| 20260905071504 | 85 | 173 | 0.0 | 0.0 | 0.00 | 0.00 | 0.00 | 65 | 1009.9 |
| 20260905070002 | 85 | 173 | 0.0 | 0.0 | 0.00 | 0.00 | 0.00 | 65 | 1010.1 |
| 20260905064502 | 85 | 244 | 0.0 | 2.0 | 0.00 | 0.00 | 0.00 | 65 | 1010.1 |
| 20260905063117 | 85 | 159 | 0.0 | 1.0 | 0.00 | 0.00 | 0.00 | 65 | 1010.2 |
| 20260905061613 | 85 | 188 | 0.0 | 1.0 | 0.00 | 0.00 | 0.00 | 66 | 1010.2 |
| 20260905060058 | 85 | 177 | 0.0 | 0.0 | 0.00 | 0.00 | 0.00 | 66 | 1010.1 |
| 20260905054558 | 85 | 236 | 0.0 | 0.0 | 0.00 | 0.00 | 0.00 | 66 | 1010.0 |
| 20260905053057 | 86 | 236 | 0.0 | 0.0 | 0.00 | 0.00 | 0.00 | 65 | 1009.8 |
| 20260905051553 | 86 | 236 | 0.0 | 0.0 | 0.00 | 0.00 | 0.00 | 64 | 1009.7 |
| 20260905050051 | 86 | 236 | 0.0 | 0.0 | 0.00 | 0.00 | 0.00 | 63 | 1009.8 |
| 20260905044551 | 87 | 236 | 0.0 | 1.0 | 0.00 | 0.00 | 0.00 | 63 | 1009.8 |
| 20260905043111 | 87 | 179 | 0.0 | 4.0 | 0.00 | 0.00 | 0.00 | 62 | 1009.7 |
| 20260905041549 | 87 | 132 | 0.0 | 1.0 | 0.00 | 0.00 | 0.00 | 60 | 1009.8 |
| 20260905040113 | 88 | 131 | 0.0 | 7.0 | 0.00 | 0.00 | 0.00 | 59 | 1009.9 |
| 20260905034548 | 88 | 142 | 0.0 | 1.0 | 0.00 | 0.00 | 0.00 | 58 | 1009.9 |
| 20260905033052 | 89 | 139 | 0.0 | 0.0 | 0.00 | 0.00 | 0.00 | 57 | 1010.0 |
| 20260905031547 | 89 | 138 | 0.0 | 1.0 | 0.00 | 0.00 | 0.00 | 56 | 1009.9 |
| 20260905030047 | 90 | 138 | 0.0 | 0.0 | 0.00 | 0.00 | 0.00 | 54 | 1009.6 |